This demonstration page uses our WeatherBlox Daily Observations layout. Learn more.

Hourly Observations for November 20, 2015

Temp ( °F °C ) Dew Point ( °F °C ) Humidity (%) Winds ( mph kmh ) Pressure ( in mb ) Visibility ( mi km ) Precip ( " mm )
12:15 am 00:15 Mostly Cloudy 35 1.5 26 -3.4 70 70 SSE 8 13 30.15 1021 10 16.0934 0 0
12:35 am 00:35 Cloudy 36 2.2 25 -3.9 64 64 S 10 17 30.15 1021 10 16.0934 0 0
12:55 am 00:55 Cloudy 36 2.2 25 -3.8 65 65 S 9 15 30.15 1021 10 16.0934 0 0
1:15 am 01:15 Cloudy 36 2.3 26 -3.6 65 65 S 9 15 30.12 1020 10 16.0934 0 0
1:35 am 01:35 Cloudy 37 2.6 26 -3.6 64 64 S 9 15 30.09 1019 10 16.0934 0 0
1:55 am 01:55 Mostly Cloudy 37 2.7 25 -3.8 63 63 S 10 17 30.09 1019 10 16.0934 0 0
2:15 am 02:15 Partly Cloudy 37 2.8 25 -4.1 61 61 S 13 20 30.06 1018 10 16.0934 0 0
2:35 am 02:35 Partly Cloudy 37 2.8 25 -4.1 61 61 S 12 19 30.06 1018 10 16.0934 0 0
2:55 am 02:55 Mostly Cloudy 37 2.7 24 -4.2 61 61 S 9 15 30.06 1018 10 16.0934 0 0
3:15 am 03:15 Partly Cloudy 37 2.8 24 -4.5 59 59 S 9 15 30.06 1018 10 16.0934 0 0
3:35 am 03:35 Partly Cloudy 37 2.5 24 -4.4 61 61 S 12 19 30.06 1018 10 16.0934 0 0
3:55 am 03:55 Clear 37 2.5 24 -4.4 61 61 SSE 12 19 30.03 1017 10 16.0934 0 0
4:15 am 04:15 Clear 36 2.3 24 -4.2 63 63 S 12 19 30.06 1018 10 16.0934 0 0
4:35 am 04:35 Partly Cloudy 36 2 25 -3.7 66 66 SSE 9 15 30.03 1017 10 16.0934 0 0
4:55 am 04:55 Clear 35 1.5 25 -3.9 68 68 SSE 8 13 30.03 1017 10 16.0934 0 0
5:15 am 05:15 Clear 35 1.9 25 -4 65 65 SSE 8 13 29.97 1015 10 16.0934 0 0
5:35 am 05:35 Clear 36 2.2 24 -4.5 62 62 SSE 12 19 29.97 1015 10 16.0934 0 0
5:55 am 05:55 Mostly Cloudy 36 2.2 23 -4.8 60 60 S 13 20 29.97 1015 10 16.0934 0 0
6:15 am 06:15 Cloudy 36 2.1 24 -4.5 62 62 S 10 17 29.97 1015 10 16.0934 0 0
6:35 am 06:35 Cloudy 36 2.2 24 -4.6 61 61 Calm 30.03 1017 10 16.0934 0 0
6:55 am 06:55 Partly Cloudy 36 2.1 24 -4.7 61 61 SSE 5 7 30.03 1017 10 16.0934 0 0
7:15 am 07:15 Partly Cloudy 35 1.4 25 -4 68 68 SSE 8 13 30 1016 10 16.0934 0 0
7:35 am 07:35 Partly Cloudy 35 1.4 25 -3.7 69 69 SSE 8 13 30 1016 10 16.0934 0 0
7:55 am 07:55 Mostly Cloudy 34 1.3 26 -3.5 71 71 SSE 12 19 30 1016 10 16.0934 0 0
8:15 am 08:15 Cloudy 35 1.5 26 -3.6 69 69 SSE 12 19 29.97 1015 10 16.0934 0 0
8:35 am 08:35 Cloudy 35 1.6 26 -3.3 70 70 SSE 15 24 29.91 1013 10 16.0934 0 0
8:55 am 08:55 Cloudy 36 2 26 -3.4 68 68 SSE 13 20 29.94 1014 10 16.0934 0 0
9:15 am 09:15 Cloudy 36 2.3 25 -3.7 65 65 SSE 14 22 29.91 1013 10 16.0934 0 0
9:35 am 09:35 Cloudy 37 2.8 26 -3.6 63 63 SSE 15 24 29.91 1013 10 16.0934 0 0
9:55 am 09:55 Mostly Cloudy 37 3 26 -3.6 62 62 S 15 24 29.88 1012 10 16.0934 0 0
10:15 am 10:15 Partly Cloudy 39 3.8 27 -2.9 62 62 S 13 20 29.88 1012 10 16.0934 0 0
10:35 am 10:35 Sunny 41 5.1 28 -2.4 59 59 S 17 28 29.85 1011 10 16.0934 0 0
10:55 am 10:55 Sunny 44 6.5 29 -1.9 55 55 S 15 24 29.85 1011 10 16.0934 0 0
11:15 am 11:15 Sunny 44 6.7 29 -1.9 55 55 S 17 28 29.83 1010 10 16.0934 0 0
11:35 am 11:35 Sunny 45 7.3 29 -1.5 54 54 SSW 15 24 29.83 1010 10 16.0934 0 0
11:55 am 11:55 Partly Cloudy 46 7.7 29 -1.4 53 53 SSW 13 20 29.8 1009 10 16.0934 0 0
12:15 pm 12:15 Partly Cloudy 47 8.6 30 -1 51 51 SSW 9 15 29.8 1009 10 16.0934 0 0
12:35 pm 12:35 Mostly Cloudy 47 8.3 30 -0.9 53 53 W 10 17 29.83 1010 10 16.0934 0 0
12:55 pm 12:55 Mostly Cloudy 46 8 31 -0.3 56 56 NW 14 22 29.83 1010 10 16.0934 0 0
1:15 pm 13:15 Partly Cloudy 45 7.2 32 -0.1 60 60 NW 14 22 29.85 1011 10 16.0934 0 0
1:35 pm 13:35 Partly Cloudy 44 6.7 31 -0.5 60 60 NW 15 24 29.88 1012 10 16.0934 0 0
1:55 pm 13:55 Partly Cloudy 45 7.3 31 -0.4 58 58 NNW 15 24 29.85 1011 10 16.0934 0 0
2:15 pm 14:15 Partly Cloudy 44 6.9 31 -0.7 59 59 N 14 22 29.85 1011 10 16.0934 0 0
2:35 pm 14:35 Partly Cloudy 44 6.5 30 -1.1 59 59 N 16 26 29.91 1013 10 16.0934 0 0
2:55 pm 14:55 Mostly Cloudy 42 5.8 30 -1.3 61 61 NNW 13 20 29.91 1013 10 16.0934 0 0
3:15 pm 15:15 Cloudy 40 4.2 31 -0.5 72 72 N 23 37 29.97 1015 10 16.0934 0 0
3:35 pm 15:35 Cloudy 38 3.2 31 -0.6 76 76 N 21 33 30 1016 10 16.0934 0 0
3:55 pm 15:55 Cloudy 36 2.3 30 -1 79 79 N 21 33 30.06 1018 10 16.0934 0 0
4:15 pm 16:15 Cloudy 36 2 30 -1.2 80 80 N 16 26 30.06 1018 10 16.0934 0 0
4:35 pm 16:35 Cloudy 34 1.2 29 -1.8 81 81 N 24 39 30.09 1019 10 16.0934 0 0
4:55 pm 16:55 Cloudy 33 0.5 28 -2.4 81 81 N 25 41 30.09 1019 10 16.0934 0 0
5:15 pm 17:15 Cloudy 32 0.1 26 -3.1 79 79 N 31 50 30.12 1020 10 16.0934 0 0
5:35 pm 17:35 Cloudy 32 0 26 -3.5 78 78 N 30 48 30.12 1020 10 16.0934 0 0
5:55 pm 17:55 Cloudy 31 -0.5 26 -3.5 80 80 N 26 43 30.18 1022 10 16.0934 0 0
6:15 pm 18:15 Cloudy 31 -0.6 26 -3.5 81 81 N 25 41 30.21 1023 10 16.0934 0 0
6:35 pm 18:35 Cloudy 30 -1 25 -3.9 81 81 N 24 39 30.24 1024 10 16.0934 0 0
6:55 pm 18:55 Cloudy 30 -1.1 24 -4.2 80 80 N 28 44 30.24 1024 10 16.0934 0 0
7:15 pm 19:15 Cloudy 30 -1.2 25 -4 82 82 N 31 50 30.24 1024 10 16.0934 0 0
7:35 pm 19:35 Cloudy 29 -1.5 24 -4.3 81 81 N 28 44 30.24 1024 10 16.0934 0 0
7:55 pm 19:55 Mostly Cloudy 29 -1.6 24 -4.7 80 80 N 25 41 30.24 1024 10 16.0934 0 0
8:15 pm 20:15 Mostly Cloudy 29 -1.6 23 -4.9 78 78 N 26 43 30.27 1025 10 16.0934 0 0
8:35 pm 20:35 Partly Cloudy 29 -1.9 23 -4.8 81 81 N 24 39 30.33 1027 10 16.0934 0 0
8:55 pm 20:55 Partly Cloudy 29 -1.7 24 -4.6 81 81 N 23 37 30.33 1027 10 16.0934 0 0
9:15 pm 21:15 Cloudy 29 -1.5 24 -4.3 81 81 N 21 33 30.33 1027 10 16.0934 0 0
9:35 pm 21:35 Cloudy 29 -1.5 25 -4.1 83 83 N 20 31 30.33 1027 10 16.0934 0 0
9:55 pm 21:55 Cloudy 30 -1.3 25 -3.9 83 83 N 23 37 30.36 1028 10 16.0934 0 0
10:15 pm 22:15 Cloudy 29 -1.5 25 -3.8 85 85 N 21 33 30.42 1030 10 16.0934 0 0
10:35 pm 22:35 Cloudy 29 -1.5 25 -4.1 83 83 N 18 30 30.42 1030 10 16.0934 0 0
10:55 pm 22:55 Cloudy 29 -1.5 24 -4.2 82 82 N 22 35 30.45 1031 10 16.0934 0 0
11:15 pm 23:15 Cloudy 29 -1.5 24 -4.5 80 80 N 23 37 30.42 1030 10 16.0934 0 0
11:35 pm 23:35 Cloudy 29 -1.6 24 -4.7 80 80 N 21 33 30.42 1030 10 16.0934 0 0
11:55 pm 23:55 Cloudy 29 -1.8 23 -5.1 78 78 N 13 20 30.45 1031 10 16.0934 0 0

Powered by AerisWeather